Other Public Products
Issued by NWS Grand Forks, ND

Home | Current Version | Previous Version | Graphics & Text | Print | Product List | Glossary On
Versions: 1 2 3 4 5 6 7 8 9 10 11 12 13 14 15 16 17 18 19 20 21 22 23 24 25 26 27 28 29 30 31 32 33 34 35 36 37 38 39 40 41 42 43 44 45 46 47 48 49 50
626
FPUS83 KFGF 230331
OPUFGF
PRAIRIE TO PINES WEATHER ROUNDUP
NATIONAL WEATHER SERVICE EASTERN NORTH DAKOTA/GRAND FORKS ND
1000 PM CDT WED MAR 22 2017

 **SATELLITE DATA USED TO AUGMENT SKY COVER AT AUTOMATED STATIONS**
 *****  WEATHER ACROSS EASTERN NORTH DAKOTA  *****

CITY           SKY/WX    TMP DP  RH WIND       PRES   REMARKS
GRAND FORKS    CLOUDY    33  19  56 S15       30.07F WCI  23
GRAND FORKS AF CLOUDY    32  23  70 S18       30.07S WCI  21
GRAND CITY NWS NOT AVBL
BUXTON         NOT AVBL
DEVILS LAKE    FAIR      28  25  88 SE16      29.98F WCI  16
FARGO          CLOUDY    35  24  64 S21       30.09F WCI  24
WAHPETON ARPT  CLOUDY    34  23  64 SE23G29   30.11F WCI  22
$$

 *****  WEATHER ACROSS CENTRAL AND WESTERN NORTH DAKOTA  *****

CITY           SKY/WX    TMP DP  RH WIND       PRES   REMARKS
JAMESTOWN      FAIR      32  24  72 SE17      29.98S WCI  21
BISMARCK       FAIR      35  28  75 SE9       29.89F
MINOT          FAIR      36  29  75 SE10      29.83S
MINOT AFB      FAIR      33  29  85 S14       29.82F WCI  24
GARRISON         N/A     34  29  82 SE14      29.83S WCI  25
WILLISTON      FAIR      36  31  82 CALM      29.78R
DICKINSON      FAIR      40  33  76 S13       29.76F
HETTINGER      FAIR      42  33  70 E10       29.80R
$$

 *****  OTHER OBSERVATIONS NORTHEAST NORTH DAKOTA  *****

CITY           SKY/WX    TMP DP  RH WIND       PRES   REMARKS
WALHALLA       NOT AVBL
LANGDON        NOT AVBL
CAVALIER       NOT AVBL
GRAFTON        CLOUDY    32  23  69 S17       30.09F WCI  21
CANDO          NOT AVBL
FORT TOTTEN      N/A     29  26  90 S17       29.95S WCI  17
ROLLA          CLOUDY    27  27 100 S22G29    29.90F WCI  12
RUGBY            N/A     30  28  93 SE18      29.89F WCI  18
 ***** THE ABOVE OBSERVATIONS ARE NON NWS ARE NOT QUALITY
        CONTROLLED AND MAY MIS-REPORT RAIN FOR SNOW...
$$

 *****  OTHER OBSERVATIONS SOUTHEAST NORTH DAKOTA *****

CITY           SKY/WX    TMP DP  RH WIND       PRES   REMARKS
COOPERSTOWN    FAIR      30  27  86 S20       30.01F WCI  18
VALLEY CITY    FLURRIES  30  30 100 S20       30.03S WCI  18
OAKES          NOT AVBL
GWINNER        CLEAR     32  28  86 MISG      30.05S
SHEYENNE NWR     N/A     34  25  68 S21       29.95S WCI  22
BUFFALO        NOT AVBL
WYNDMERE         N/A     34  27  75 SE21        N/A  WCI  22
 ***** THE ABOVE OBSERVATIONS ARE NON NWS ARE NOT QUALITY
       CONTROLLED AND MAY MIS-REPORT RAIN FOR SNOW...
$$

  *****  WEATHER ACROSS NORTHERN MINNESOTA  *****

CITY           SKY/WX    TMP DP  RH WIND       PRES   REMARKS
FLAG ISLAND    CLOUDY    28  19  69 S16       30.14F WCI  17
WARROAD        CLOUDY    30  25  80 SE17      30.14F WCI  18
ROSEAU         CLOUDY    30  25  80 SE14      30.11F WCI  20
HALLOCK        CLOUDY    32  25  74 S16       30.09S WCI  21
THF RVR FALLS    N/A    N/A N/A N/A MISG        N/A
HALSTAD          N/A     34  23  64 S21         N/A  WCI  22
FOSSTON        CLOUDY    30  18  59 SE18      30.11F WCI  18
BAUDETTE       CLOUDY    31  16  54 S17G23    30.17S WCI  19
WASKISH        CLOUDY    30  21  69 SE8       30.18F WCI  23
CROOKSTON      CLOUDY    34  21  60 S17G24    30.11R WCI  23
$$
  *****  WEATHER ACROSS CENTRAL AND WEST MINNESOTA  *****

CITY           SKY/WX    TMP DP  RH WIND       PRES   REMARKS
BEMIDJI        CLOUDY    32  13  45 SE15G21   30.16F WCI  22
PARK RAPIDS    CLOUDY    32  16  51 SE23G32   30.17F WCI  19
WADENA         CLOUDY    30  21  69 SE16      30.17S WCI  19
DETROIT LAKES  MOCLDY    32  23  69 SE23      30.12F WCI  19
MOORHEAD       CLOUDY    36  23  60 S23G30    30.11S
FERGUS FALLS   CLOUDY    34  21  60 SE18G24   30.17F WCI  23
ELBOW LAKE     CLOUDY    33  23  65 SE20G28   30.15R WCI  22
MORRIS MN      CLOUDY    36  25  64 SE22G28   30.14S
STAPLES        CLOUDY    32  18  55 SE12G17   30.19F WCI  23
WHEATON        CLOUDY    34  25  69 SE20      30.14F WCI  22
$$
  *****  WEATHER ELSEWHERE ACROSS MINNESOTA  *****

CITY           SKY/WX    TMP DP  RH WIND       PRES   REMARKS
DULUTH         CLOUDY    27  20  75 E9        30.31S WCI  18
INTRNTL FALLS  CLOUDY    33  10  38 SE9       30.21F
ELY            MOCLDY    27  12  54 S9        30.30S WCI  17
CLOQUET        CLOUDY    28  18  64 E7        30.30S WCI  21
BRAINERD       CLOUDY    32  17  54 SE9       30.25S WCI  24
HIBBING        CLOUDY    28  14  55 SE12      30.27S WCI  18
ALEXANDRIA     CLOUDY    33  22  63 SE16      30.17F WCI  23
SAINT CLOUD    CLOUDY    35  17  47 SE13      30.25F
MINNEAPOLIS    CLOUDY    37  13  37 SE14      30.30F
$$

  *****  WEATHER ACROSS SOUTH DAKOTA  *****

CITY           SKY/WX    TMP DP  RH WIND       PRES   REMARKS
SIOUX FALLS    CLOUDY    39  27  62 SE20      30.13S
BROOKINGS      MOCLDY    36  24  62 SE21G29   30.08F
WATERTOWN      CLOUDY    34  24  67 SE18G26   30.07S WCI  23
HURON          FAIR      37  27  67 SE15G25   30.01F
SISSETON         N/A     34  27  75 S23G29    30.09F WCI  22
ABERDEEN       FAIR      34  24  67 SE13      30.01F WCI  25
MITCHELL       CLOUDY    41  29  62 SE25G31   30.04R
PIERRE         FAIR      48  30  49 SE16      29.87S
MOBRIDGE       FAIR      41  26  55 SE18G28   29.84F
RAPID CITY     FAIR      46  39  76 W3        29.78S
$$

  *****  SOME WEATHER IN NEARBY STATES *****

CITY           SKY/WX    TMP DP  RH WIND       PRES   REMARKS
GLASGOW MT     FAIR      45  36  70 SE10      29.74R
GREAT FALLS MT FAIR      43  23  45 W5        29.77R
CHEYENNE WY    FAIR      56  32  40 S3        29.88S
SCOTTSBLUFF NE FAIR      55  35  47 SE16      29.82R
OMAHA NE       CLOUDY    46  24  42 SE20      30.18F
DES MOINES IA  MOCLDY    43  20  39 SE9G18    30.28F
DAVENPORT IA   MOCLDY    38  21  50 SE14      30.42R
CHICAGO IL     FAIR      30  18  60 E7        30.47F WCI  23
EAU CLAIRE WI  FAIR      34   9  35 SE8       30.36S
LA CROSSE WI   FAIR      38  12  34 SE8       30.38F
$$

  *****  SOME NATIONAL WEATHER *****

CITY           SKY/WX    TMP DP  RH WIND       PRES   REMARKS
LA GUARDIA NY  FAIR      28   0  29 NW23G30   30.43R WCI  14
RALEIGH NC     FAIR      45  14  28 E10       30.40R
ATLANTA GA     FAIR      55  26  32 N7        30.25R
NEW ORLEANS LA FAIR      71  60  68 SW5       30.16R
OKLAHOMA CITY  CLOUDY    63  56  78 SE16      30.05R
ALBUQUERQUE NM MOCLDY    72  14  11 S15       29.93S
SALT LAKE CITY MOCLDY    52  45  77 CALM      29.75F
LOS ANGELES CA FAIR      59  52  77 W22       29.96S
BOISE ID       FAIR      54  34  46 NW7       29.85R
SEATTLE WA     FAIR      45  39  79 SW18G24   30.01R
$$

*** WEATHER ACROSS MANITOBA...SASKATCHEWAN AND ONTARIO ***
                ***ONTARIO***

CITY           SKY/WX    TMP DP  RH WIND       PRES   REMARKS
GERALDTON      PTCLDY    12  -6  44 SW7       30.37S WCI   2
THUNDER BAY    CLOUDY    25  16  68 SE3       30.40F
SIOUX LOOKOUT  CLOUDY    28   1  31 S6        30.23F WCI  22
TORONTO        CLEAR     21   9  58 N10       30.53S WCI  10
BIG TROUT LK   CLEAR      9  -6  52 SE5       30.21F WCI   0
PICKLE LAKE    NOT AVBL
DRYDEN         CLOUDY    30   5  34 SE9       30.20F WCI  22
KENORA         FLURRIES  30  10  43 SE12      30.14F WCI  21
$$
                *** MANITOBA***

CITY           SKY/WX    TMP DP  RH WIND       PRES   REMARKS
BRANDON        CLOUDY    28  25  86 S14G20    29.90F WCI  17
DAUPHIN        CLOUDY    28  25  86 SE10      29.87F WCI  19
ISLAND LAKE    CLOUDY    28   7  40 SE9       30.08F WCI  20
PILOT MOUND      N/A     27  23  86 S22         N/A  WCI  12
THE PAS        FLURRIES  23  18  80 SE18      29.79F WCI   9
THOMPSON       CLOUDY    27   1  33 SE2       29.95F
WINNIPEG       CLOUDY    30  21  69 S17       30.07F WCI  18
LYNN LAKE      CLOUDY    25   9  50 SE14      29.81F WCI  13
CHURCHILL      CLEAR      9   1  72 S12       30.06F WCI  -6
GILLAM         CLEAR     23   0  36 S7        30.05F WCI  15
$$
                ***SASKATCHEWAN***

CITY           SKY/WX    TMP DP  RH WIND       PRES   REMARKS
ESTEVAN        PTCLDY    32  30  93 SE9       29.78F WCI  24
KINDERSLEY     PTCLDY    32  30  93 NW3       29.66R
LLOYDMINSTER   LGT SNOW  25  25 100 W10       29.64  WCI  15
PRINCE ALBERT  FLURRIES  30  27  86 E13       29.51F WCI  20
REGINA         CLEAR     34  30  86 SE16G23   29.68S WCI  23
YORKTON        CLEAR     28  27  93 S13G21    29.73F W



USA.gov is the U.S. government's official web portal to all federal, state and local government web resources and services.